Time,TemperatureF,DewpointF,PressureIn,WindDirection,WindDirectionDegrees,WindSpeedMPH,WindSpeedGustMPH,Humidity,HourlyPrecipIn,Conditions,Clouds,dailyrainin,SoftwareType,DateUTC
2013-08-28 00:02:00,71.0,63.8,29.98,NW,305,6.0,9.0,78,0.00,,,0.00,Wunderground v.1.15,2013-08-28 06:02:00,
2013-08-28 00:08:00,70.7,63.9,29.98,NNW,335,6.0,9.0,79,0.00,,,0.00,Wunderground v.1.15,2013-08-28 06:08:00,
2013-08-28 00:14:00,70.6,63.8,29.99,NW,324,6.0,9.0,79,0.00,,,0.00,Wunderground v.1.15,2013-08-28 06:14:00,
2013-08-28 00:20:00,70.6,63.8,29.99,NW,320,6.0,9.0,79,0.00,,,0.00,Wunderground v.1.15,2013-08-28 06:20:00,
2013-08-28 00:26:00,70.6,64.1,30.00,NNW,345,6.0,9.0,80,0.00,,,0.00,Wunderground v.1.15,2013-08-28 06:26:00,
2013-08-28 00:32:00,70.6,64.1,30.00,NNW,347,6.0,6.0,80,0.00,,,0.00,Wunderground v.1.15,2013-08-28 06:32:00,
2013-08-28 00:38:00,70.6,64.1,30.00,NNW,336,7.0,8.0,80,0.00,,,0.00,Wunderground v.1.15,2013-08-28 06:38:00,
2013-08-28 00:44:00,70.5,64.4,30.00,NNW,346,7.0,9.0,81,0.00,,,0.00,Wunderground v.1.15,2013-08-28 06:44:00,
2013-08-28 00:50:00,70.5,64.4,30.00,NNW,341,6.0,9.0,81,0.00,,,0.00,Wunderground v.1.15,2013-08-28 06:50:00,
2013-08-28 00:56:00,70.5,64.4,30.00,NNW,346,6.0,9.0,81,0.00,,,0.00,Wunderground v.1.15,2013-08-28 06:56:00,
2013-08-28 01:02:00,70.3,64.2,30.00,NNW,337,6.0,7.0,81,0.00,,,0.00,Wunderground v.1.15,2013-08-28 07:02:00,
2013-08-28 01:08:00,70.1,64.3,30.00,NNW,328,7.0,8.0,82,0.00,,,0.00,Wunderground v.1.15,2013-08-28 07:08:00,
2013-08-28 01:14:00,70.0,64.2,30.00,NNW,328,7.0,8.0,82,0.00,,,0.00,Wunderground v.1.15,2013-08-28 07:14:00,
2013-08-28 01:20:00,69.9,64.5,30.00,NNW,338,6.0,6.0,83,0.00,,,0.00,Wunderground v.1.15,2013-08-28 07:20:00,
2013-08-28 01:26:00,69.7,64.3,30.00,NW,322,6.0,6.0,83,0.00,,,0.00,Wunderground v.1.15,2013-08-28 07:26:00,
2013-08-28 01:32:00,69.6,64.2,30.00,NW,326,5.0,9.0,83,0.00,,,0.00,Wunderground v.1.15,2013-08-28 07:32:00,
2013-08-28 01:38:00,69.5,64.1,30.00,NW,319,6.0,9.0,83,0.00,,,0.00,Wunderground v.1.15,2013-08-28 07:38:00,
2013-08-28 01:44:00,69.4,64.0,30.00,NW,319,7.0,10.0,83,0.00,,,0.00,Wunderground v.1.15,2013-08-28 07:44:00,
2013-08-28 01:50:00,69.2,64.2,30.00,NW,321,7.0,7.0,84,0.00,,,0.00,Wunderground v.1.15,2013-08-28 07:50:00,
2013-08-28 01:56:00,69.1,64.1,30.00,NW,321,7.0,7.0,84,0.00,,,0.00,Wunderground v.1.15,2013-08-28 07:56:00,
2013-08-28 02:02:00,69.1,64.1,30.00,NNW,335,7.0,7.0,84,0.00,,,0.00,Wunderground v.1.15,2013-08-28 08:02:00,
2013-08-28 02:08:00,69.1,64.1,30.00,NNW,329,7.0,7.0,84,0.00,,,0.00,Wunderground v.1.15,2013-08-28 08:08:00,
2013-08-28 02:14:00,69.0,64.0,30.00,WNW,300,5.0,6.0,84,0.00,,,0.00,Wunderground v.1.15,2013-08-28 08:14:00,
2013-08-28 02:20:00,68.8,63.8,30.00,NNW,328,4.0,9.0,84,0.00,,,0.00,Wunderground v.1.15,2013-08-28 08:20:00,
2013-08-28 02:26:00,68.5,63.8,29.99,NNW,328,5.0,9.0,85,0.00,,,0.00,Wunderground v.1.15,2013-08-28 08:26:00,
2013-08-28 02:32:00,68.2,63.5,29.99,NW,317,4.0,5.0,85,0.00,,,0.00,Wunderground v.1.15,2013-08-28 08:32:00,
2013-08-28 02:38:00,68.1,63.8,29.99,NW,313,4.0,5.0,86,0.00,,,0.00,Wunderground v.1.15,2013-08-28 08:38:00,
2013-08-28 02:44:00,68.0,63.7,29.99,NW,313,4.0,6.0,86,0.00,,,0.00,Wunderground v.1.15,2013-08-28 08:44:00,
2013-08-28 02:50:00,67.9,63.9,29.99,NW,312,4.0,4.0,87,0.00,,,0.00,Wunderground v.1.15,2013-08-28 08:50:00,
2013-08-28 02:56:00,67.9,63.9,30.00,WNW,284,2.0,4.0,87,0.00,,,0.00,Wunderground v.1.15,2013-08-28 08:56:00,
2013-08-28 03:02:00,67.9,63.9,30.00,WNW,301,3.0,3.0,87,0.00,,,0.00,Wunderground v.1.15,2013-08-28 09:02:00,
2013-08-28 03:08:00,67.8,63.8,30.00,NW,321,2.0,4.0,87,0.00,,,0.00,Wunderground v.1.15,2013-08-28 09:08:00,
2013-08-28 03:14:00,67.7,63.7,30.01,NW,320,1.0,4.0,87,0.00,,,0.00,Wunderground v.1.15,2013-08-28 09:14:00,
2013-08-28 03:20:00,67.7,63.7,30.01,NW,321,1.0,4.0,87,0.00,,,0.00,Wunderground v.1.15,2013-08-28 09:20:00,
2013-08-28 03:26:00,67.7,63.7,30.00,NW,321,1.0,4.0,87,0.00,,,0.00,Wunderground v.1.15,2013-08-28 09:26:00,
2013-08-28 03:32:00,67.7,63.7,30.00,NNW,330,2.0,5.0,87,0.00,,,0.00,Wunderground v.1.15,2013-08-28 09:32:00,
2013-08-28 03:36:00,67.7,63.7,30.00,NNW,330,3.0,5.0,87,0.00,,,0.00,Wunderground v.1.15,2013-08-28 09:36:00,
2013-08-28 03:42:00,67.6,63.6,30.00,NW,314,3.0,4.0,87,0.00,,,0.00,Wunderground v.1.15,2013-08-28 09:42:00,
2013-08-28 03:48:00,67.5,63.5,30.00,NW,322,2.0,4.0,87,0.00,,,0.00,Wunderground v.1.15,2013-08-28 09:48:00,
2013-08-28 03:54:00,67.3,63.3,30.01,NW,305,2.0,4.0,87,0.00,,,0.00,Wunderground v.1.15,2013-08-28 09:54:00,
2013-08-28 04:00:00,67.0,63.3,30.01,WNW,301,2.0,4.0,88,0.00,,,0.00,Wunderground v.1.15,2013-08-28 10:00:00,
2013-08-28 04:06:00,66.6,62.9,30.01,WNW,299,1.0,4.0,88,0.00,,,0.00,Wunderground v.1.15,2013-08-28 10:06:00,
2013-08-28 04:12:00,66.3,63.0,30.00,WNW,287,1.0,4.0,89,0.00,,,0.00,Wunderground v.1.15,2013-08-28 10:12:00,
2013-08-28 04:18:00,66.0,62.7,30.00,West,265,1.0,4.0,89,0.00,,,0.00,Wunderground v.1.15,2013-08-28 10:18:00,
2013-08-28 04:24:00,65.9,62.6,30.00,WNW,292,1.0,4.0,89,0.00,,,0.00,Wunderground v.1.15,2013-08-28 10:24:00,
2013-08-28 04:30:00,65.7,62.7,30.00,WNW,292,1.0,1.0,90,0.00,,,0.00,Wunderground v.1.15,2013-08-28 10:30:00,
2013-08-28 04:36:00,65.5,62.5,30.01,WNW,284,0.0,4.0,90,0.00,,,0.00,Wunderground v.1.15,2013-08-28 10:36:00,
2013-08-28 04:42:00,65.4,62.4,30.00,WNW,282,1.0,4.0,90,0.00,,,0.00,Wunderground v.1.15,2013-08-28 10:42:00,
2013-08-28 04:48:00,65.5,62.8,30.00,WNW,283,0.0,4.0,91,0.00,,,0.00,Wunderground v.1.15,2013-08-28 10:48:00,
2013-08-28 04:54:00,65.7,63.0,30.00,WNW,283,0.0,4.0,91,0.00,,,0.00,Wunderground v.1.15,2013-08-28 10:54:00,
2013-08-28 05:00:00,65.8,63.1,30.00,WNW,283,0.0,4.0,91,0.00,,,0.00,Wunderground v.1.15,2013-08-28 11:00:00,
2013-08-28 05:06:00,65.8,63.1,30.00,WNW,282,0.0,4.0,91,0.00,,,0.00,Wunderground v.1.15,2013-08-28 11:06:00,
2013-08-28 05:12:00,65.8,62.8,29.99,WNW,283,0.0,4.0,90,0.00,,,0.00,Wunderground v.1.15,2013-08-28 11:12:00,
2013-08-28 05:18:00,65.8,63.1,29.99,WNW,283,0.0,4.0,91,0.00,,,0.00,Wunderground v.1.15,2013-08-28 11:18:00,
2013-08-28 05:24:00,65.9,62.9,30.00,WNW,283,0.0,4.0,90,0.00,,,0.00,Wunderground v.1.15,2013-08-28 11:24:00,
2013-08-28 05:30:00,66.0,63.3,30.00,West,281,1.0,4.0,91,0.00,,,0.00,Wunderground v.1.15,2013-08-28 11:30:00,
2013-08-28 05:36:00,66.2,63.5,30.00,West,281,1.0,4.0,91,0.00,,,0.00,Wunderground v.1.15,2013-08-28 11:36:00,
2013-08-28 05:42:00,66.1,63.4,30.00,NW,323,1.0,4.0,91,0.00,,,0.00,Wunderground v.1.15,2013-08-28 11:42:00,
2013-08-28 05:48:00,66.2,63.5,30.00,NW,326,1.0,4.0,91,0.00,,,0.00,Wunderground v.1.15,2013-08-28 11:48:00,
2013-08-28 05:54:00,66.2,63.2,30.01,WNW,301,1.0,4.0,90,0.00,,,0.00,Wunderground v.1.15,2013-08-28 11:54:00,
2013-08-28 06:00:00,66.1,63.4,30.01,WNW,302,1.0,4.0,91,0.00,,,0.00,Wunderground v.1.15,2013-08-28 12:00:00,
2013-08-28 06:06:00,66.2,63.2,30.01,WNW,302,1.0,4.0,90,0.00,,,0.00,Wunderground v.1.15,2013-08-28 12:06:00,
2013-08-28 06:12:00,66.1,63.1,30.01,WNW,299,0.0,4.0,90,0.00,,,0.00,Wunderground v.1.15,2013-08-28 12:12:00,
2013-08-28 06:18:00,66.0,63.0,30.02,WNW,299,0.0,4.0,90,0.00,,,0.00,Wunderground v.1.15,2013-08-28 12:18:00,
2013-08-28 06:24:00,66.0,63.0,30.03,WNW,299,0.0,4.0,90,0.00,,,0.00,Wunderground v.1.15,2013-08-28 12:24:00,
2013-08-28 06:30:00,66.1,63.1,30.02,WNW,299,0.0,4.0,90,0.00,,,0.00,Wunderground v.1.15,2013-08-28 12:30:00,
2013-08-28 06:36:00,66.2,63.2,30.02,WNW,299,0.0,4.0,90,0.00,,,0.00,Wunderground v.1.15,2013-08-28 12:36:00,
2013-08-28 06:42:00,66.3,63.0,30.02,WNW,299,0.0,4.0,89,0.00,,,0.00,Wunderground v.1.15,2013-08-28 12:42:00,
2013-08-28 06:48:00,66.3,63.3,30.03,WNW,299,0.0,4.0,90,0.00,,,0.00,Wunderground v.1.15,2013-08-28 12:48:00,
2013-08-28 06:54:00,66.6,63.9,30.03,WNW,299,0.0,4.0,91,0.00,,,0.00,Wunderground v.1.15,2013-08-28 12:54:00,
2013-08-28 07:00:00,67.0,64.3,30.03,WNW,299,0.0,4.0,91,0.00,,,0.00,Wunderground v.1.15,2013-08-28 13:00:00,
2013-08-28 07:06:00,67.4,64.4,30.03,WNW,299,0.0,4.0,90,0.00,,,0.00,Wunderground v.1.15,2013-08-28 13:06:00,
2013-08-28 07:12:00,67.7,64.3,30.03,WNW,299,0.0,4.0,89,0.00,,,0.00,Wunderground v.1.15,2013-08-28 13:12:00,
2013-08-28 07:18:00,68.1,64.4,30.04,WNW,299,0.0,4.0,88,0.00,,,0.00,Wunderground v.1.15,2013-08-28 13:18:00,
2013-08-28 07:24:00,68.4,64.7,30.04,WNW,299,0.0,4.0,88,0.00,,,0.00,Wunderground v.1.15,2013-08-28 13:24:00,
2013-08-28 07:30:00,68.5,64.5,30.04,WNW,299,0.0,4.0,87,0.00,,,0.00,Wunderground v.1.15,2013-08-28 13:30:00,
2013-08-28 07:36:00,68.6,64.6,30.04,WNW,299,0.0,4.0,87,0.00,,,0.00,Wunderground v.1.15,2013-08-28 13:36:00,
2013-08-28 07:42:00,68.8,64.4,30.04,WNW,299,0.0,4.0,86,0.00,,,0.00,Wunderground v.1.15,2013-08-28 13:42:00,
2013-08-28 07:48:00,69.0,64.6,30.04,WNW,299,0.0,4.0,86,0.00,,,0.00,Wunderground v.1.15,2013-08-28 13:48:00,
2013-08-28 07:54:00,69.1,64.7,30.03,WNW,299,0.0,4.0,86,0.00,,,0.00,Wunderground v.1.15,2013-08-28 13:54:00,
2013-08-28 08:00:00,69.2,64.5,30.03,WNW,299,0.0,4.0,85,0.00,,,0.00,Wunderground v.1.15,2013-08-28 14:00:00,
2013-08-28 08:06:00,69.3,64.6,30.03,WNW,299,0.0,4.0,85,0.00,,,0.00,Wunderground v.1.15,2013-08-28 14:06:00,
2013-08-28 08:12:00,69.5,64.8,30.03,WNW,299,0.0,4.0,85,0.00,,,0.00,Wunderground v.1.15,2013-08-28 14:12:00,
2013-08-28 08:18:00,69.7,64.6,30.03,WNW,299,0.0,4.0,84,0.00,,,0.00,Wunderground v.1.15,2013-08-28 14:18:00,
2013-08-28 08:24:00,70.0,64.9,30.03,WNW,299,1.0,4.0,84,0.00,,,0.00,Wunderground v.1.15,2013-08-28 14:24:00,
2013-08-28 08:30:00,70.3,64.9,30.04,WNW,299,0.0,4.0,83,0.00,,,0.00,Wunderground v.1.15,2013-08-28 14:30:00,
2013-08-28 08:36:00,70.5,65.1,30.03,WNW,299,0.0,4.0,83,0.00,,,0.00,Wunderground v.1.15,2013-08-28 14:36:00,
2013-08-28 08:42:00,70.8,65.0,30.03,WNW,299,0.0,4.0,82,0.00,,,0.00,Wunderground v.1.15,2013-08-28 14:42:00,
2013-08-28 08:48:00,71.0,65.6,30.03,WNW,299,0.0,4.0,83,0.00,,,0.00,Wunderground v.1.15,2013-08-28 14:48:00,
2013-08-28 08:54:00,71.2,65.4,30.03,WNW,299,0.0,4.0,82,0.00,,,0.00,Wunderground v.1.15,2013-08-28 14:54:00,
2013-08-28 09:00:00,71.4,65.6,30.03,WNW,299,0.0,4.0,82,0.00,,,0.00,Wunderground v.1.15,2013-08-28 15:00:00,
2013-08-28 09:06:00,71.7,65.9,30.03,WNW,299,0.0,4.0,82,0.00,,,0.00,Wunderground v.1.15,2013-08-28 15:06:00,
2013-08-28 09:12:00,72.2,66.7,30.03,NNW,341,0.0,4.0,83,0.00,,,0.00,Wunderground v.1.15,2013-08-28 15:12:00,
2013-08-28 09:18:00,72.4,66.6,30.03,NNW,341,1.0,4.0,82,0.00,,,0.00,Wunderground v.1.15,2013-08-28 15:18:00,
2013-08-28 09:24:00,72.4,66.6,30.03,North,354,0.0,4.0,82,0.00,,,0.00,Wunderground v.1.15,2013-08-28 15:24:00,
2013-08-28 09:30:00,72.3,66.5,30.03,North,8,1.0,4.0,82,0.00,,,0.00,Wunderground v.1.15,2013-08-28 15:30:00,
2013-08-28 09:36:00,72.2,66.4,30.03,NNE,16,0.0,4.0,82,0.00,,,0.00,Wunderground v.1.15,2013-08-28 15:36:00,
2013-08-28 09:42:00,72.2,66.4,30.03,East,83,1.0,4.0,82,0.00,,,0.00,Wunderground v.1.15,2013-08-28 15:42:00,
2013-08-28 09:48:00,72.4,66.6,30.04,NE,54,1.0,4.0,82,0.00,,,0.00,Wunderground v.1.15,2013-08-28 15:48:00,
2013-08-28 09:54:00,72.5,66.7,30.04,ENE,64,1.0,4.0,82,0.00,,,0.00,Wunderground v.1.15,2013-08-28 15:54:00,
2013-08-28 10:00:00,72.7,67.2,30.05,East,90,1.0,4.0,83,0.00,,,0.00,Wunderground v.1.15,2013-08-28 16:00:00,
2013-08-28 10:06:00,72.9,67.1,30.05,ESE,108,1.0,4.0,82,0.00,,,0.00,Wunderground v.1.15,2013-08-28 16:06:00,
2013-08-28 10:12:00,73.0,66.8,30.05,East,99,2.0,6.0,81,0.00,,,0.00,Wunderground v.1.15,2013-08-28 16:12:00,
2013-08-28 10:18:00,73.1,66.9,30.05,ESE,116,2.0,6.0,81,0.00,,,0.00,Wunderground v.1.15,2013-08-28 16:18:00,
2013-08-28 10:24:00,73.3,67.1,30.05,SE,130,3.0,5.0,81,0.00,,,0.00,Wunderground v.1.15,2013-08-28 16:24:00,
2013-08-28 10:30:00,73.8,67.2,30.06,SE,131,4.0,8.0,80,0.00,,,0.00,Wunderground v.1.15,2013-08-28 16:30:00,
2013-08-28 10:36:00,74.1,67.2,30.06,SE,145,5.0,8.0,79,0.00,,,0.00,Wunderground v.1.15,2013-08-28 16:36:00,
2013-08-28 10:42:00,74.4,67.5,30.06,SE,131,5.0,5.0,79,0.00,,,0.00,Wunderground v.1.15,2013-08-28 16:42:00,
2013-08-28 10:48:00,74.9,67.6,30.07,SE,139,5.0,9.0,78,0.00,,,0.00,Wunderground v.1.15,2013-08-28 16:48:00,
2013-08-28 10:54:00,74.9,67.2,30.07,SE,145,6.0,6.0,77,0.00,,,0.00,Wunderground v.1.15,2013-08-28 16:54:00,
2013-08-28 11:00:00,75.0,67.7,30.07,SE,125,6.0,8.0,78,0.00,,,0.00,Wunderground v.1.15,2013-08-28 17:00:00,
2013-08-28 11:06:00,75.3,67.6,30.07,ESE,114,7.0,8.0,77,0.00,,,0.00,Wunderground v.1.15,2013-08-28 17:06:00,
2013-08-28 11:12:00,75.3,67.6,30.07,SE,125,7.0,9.0,77,0.00,,,0.00,Wunderground v.1.15,2013-08-28 17:12:00,
2013-08-28 11:18:00,75.3,67.6,30.07,ESE,112,7.0,9.0,77,0.00,,,0.00,Wunderground v.1.15,2013-08-28 17:18:00,
2013-08-28 11:24:00,75.2,67.5,30.06,SE,125,7.0,8.0,77,0.00,,,0.00,Wunderground v.1.15,2013-08-28 17:24:00,
2013-08-28 11:30:00,75.2,67.5,30.06,ESE,118,7.0,8.0,77,0.00,,,0.00,Wunderground v.1.15,2013-08-28 17:30:00,
2013-08-28 11:36:00,75.9,68.2,30.06,ESE,123,7.0,8.0,77,0.00,,,0.00,Wunderground v.1.15,2013-08-28 17:36:00,
2013-08-28 11:42:00,76.7,67.8,30.06,SSE,147,6.0,7.0,74,0.00,,,0.00,Wunderground v.1.15,2013-08-28 17:42:00,
2013-08-28 11:48:00,77.0,68.5,30.05,SSE,153,4.0,7.0,75,0.00,,,0.00,Wunderground v.1.15,2013-08-28 17:48:00,
2013-08-28 11:54:00,77.3,68.4,30.06,ESE,108,3.0,4.0,74,0.00,,,0.00,Wunderground v.1.15,2013-08-28 17:54:00,
2013-08-28 12:00:00,77.7,68.4,30.05,SSE,163,3.0,3.0,73,0.00,,,0.00,Wunderground v.1.15,2013-08-28 18:00:00,
2013-08-28 12:06:00,78.0,68.2,30.05,ENE,72,4.0,5.0,72,0.00,,,0.00,Wunderground v.1.15,2013-08-28 18:06:00,
2013-08-28 12:12:00,78.4,69.0,30.05,SE,133,3.0,5.0,73,0.00,,,0.00,Wunderground v.1.15,2013-08-28 18:12:00,
2013-08-28 12:18:00,78.9,68.3,30.05,SE,137,4.0,8.0,70,0.00,,,0.00,Wunderground v.1.15,2013-08-28 18:18:00,
2013-08-28 12:24:00,78.9,68.7,30.05,SE,125,4.0,4.0,71,0.00,,,0.00,Wunderground v.1.15,2013-08-28 18:24:00,
2013-08-28 12:30:00,79.6,69.0,30.04,SE,125,3.0,8.0,70,0.00,,,0.00,Wunderground v.1.15,2013-08-28 18:30:00,
2013-08-28 12:36:00,80.0,68.9,30.04,SE,125,5.0,8.0,69,0.00,,,0.00,Wunderground v.1.15,2013-08-28 18:36:00,
2013-08-28 12:42:00,80.4,68.9,30.04,SSE,162,6.0,9.0,68,0.00,,,0.00,Wunderground v.1.15,2013-08-28 18:42:00,
2013-08-28 12:48:00,80.7,68.7,30.04,ESE,104,7.0,10.0,67,0.00,,,0.00,Wunderground v.1.15,2013-08-28 18:48:00,
2013-08-28 12:54:00,80.6,69.1,30.04,South,169,7.0,7.0,68,0.00,,,0.00,Wunderground v.1.15,2013-08-28 18:54:00,
2013-08-28 13:00:00,80.8,69.2,30.03,SSE,147,8.0,8.0,68,0.00,,,0.00,Wunderground v.1.15,2013-08-28 19:00:00,
2013-08-28 13:06:00,80.0,68.9,30.03,SE,139,8.0,10.0,69,0.00,,,0.00,Wunderground v.1.15,2013-08-28 19:06:00,
2013-08-28 13:12:00,79.5,68.9,30.03,ESE,122,8.0,8.0,70,0.00,,,0.00,Wunderground v.1.15,2013-08-28 19:12:00,
2013-08-28 13:18:00,80.4,68.9,30.03,ESE,118,7.0,11.0,68,0.00,,,0.00,Wunderground v.1.15,2013-08-28 19:18:00,
2013-08-28 13:24:00,80.8,69.2,30.03,SE,145,6.0,10.0,68,0.00,,,0.00,Wunderground v.1.15,2013-08-28 19:24:00,
2013-08-28 13:30:00,81.6,68.2,30.02,SE,137,8.0,8.0,64,0.00,,,0.00,Wunderground v.1.15,2013-08-28 19:30:00,
2013-08-28 13:36:00,81.9,69.0,30.02,SE,133,8.0,12.0,65,0.00,,,0.00,Wunderground v.1.15,2013-08-28 19:36:00,
2013-08-28 13:42:00,82.3,69.4,30.02,SSE,164,9.0,9.0,65,0.00,,,0.00,Wunderground v.1.15,2013-08-28 19:42:00,
2013-08-28 13:48:00,82.1,69.2,30.02,ESE,103,9.0,12.0,65,0.00,,,0.00,Wunderground v.1.15,2013-08-28 19:48:00,
2013-08-28 13:54:00,82.2,69.3,30.02,SE,135,9.0,13.0,65,0.00,,,0.00,Wunderground v.1.15,2013-08-28 19:54:00,
2013-08-28 14:00:00,82.8,68.9,30.02,SE,140,10.0,10.0,63,0.00,,,0.00,Wunderground v.1.15,2013-08-28 20:00:00,
2013-08-28 14:06:00,82.9,69.0,30.01,SE,134,9.0,14.0,63,0.00,,,0.00,Wunderground v.1.15,2013-08-28 20:06:00,
2013-08-28 14:12:00,82.8,69.4,30.01,SE,144,11.0,16.0,64,0.00,,,0.00,Wunderground v.1.15,2013-08-28 20:12:00,
2013-08-28 14:18:00,83.0,69.1,30.01,SSE,160,11.0,16.0,63,0.00,,,0.00,Wunderground v.1.15,2013-08-28 20:18:00,
2013-08-28 14:24:00,83.3,68.9,30.01,SSE,151,10.0,13.0,62,0.00,,,0.00,Wunderground v.1.15,2013-08-28 20:24:00,
2013-08-28 14:30:00,84.3,69.4,30.01,SSE,162,9.0,9.0,61,0.00,,,0.00,Wunderground v.1.15,2013-08-28 20:30:00,
2013-08-28 14:36:00,83.6,68.7,30.01,SSE,158,9.0,12.0,61,0.00,,,0.00,Wunderground v.1.15,2013-08-28 20:36:00,
2013-08-28 14:42:00,83.0,68.6,30.00,SSE,156,10.0,17.0,62,0.00,,,0.00,Wunderground v.1.15,2013-08-28 20:42:00,
2013-08-28 14:48:00,83.7,68.3,30.00,SSE,162,11.0,18.0,60,0.00,,,0.00,Wunderground v.1.15,2013-08-28 20:48:00,
2013-08-28 14:54:00,85.0,69.1,30.00,SE,129,11.0,12.0,59,0.00,,,0.00,Wunderground v.1.15,2013-08-28 20:54:00,
2013-08-28 15:00:00,85.0,69.1,30.00,SSE,164,10.0,10.0,59,0.00,,,0.00,Wunderground v.1.15,2013-08-28 21:00:00,
2013-08-28 15:06:00,85.9,68.4,29.99,South,180,10.0,12.0,56,0.00,,,0.00,Wunderground v.1.15,2013-08-28 21:06:00,
2013-08-28 15:12:00,86.2,69.2,29.99,SSE,167,11.0,11.0,57,0.00,,,0.00,Wunderground v.1.15,2013-08-28 21:12:00,
2013-08-28 15:18:00,85.9,68.4,29.99,SSE,158,12.0,12.0,56,0.00,,,0.00,Wunderground v.1.15,2013-08-28 21:18:00,
2013-08-28 15:24:00,86.1,68.6,29.99,SSE,168,11.0,14.0,56,0.00,,,0.00,Wunderground v.1.15,2013-08-28 21:24:00,
2013-08-28 15:30:00,85.9,68.4,29.99,SSE,165,10.0,10.0,56,0.00,,,0.00,Wunderground v.1.15,2013-08-28 21:30:00,
2013-08-28 15:36:00,85.7,67.1,29.99,South,169,11.0,15.0,54,0.00,,,0.00,Wunderground v.1.15,2013-08-28 21:36:00,
2013-08-28 15:42:00,85.9,67.3,29.99,SSE,164,11.0,11.0,54,0.00,,,0.00,Wunderground v.1.15,2013-08-28 21:42:00,
2013-08-28 15:48:00,86.4,66.7,29.99,South,170,11.0,14.0,52,0.00,,,0.00,Wunderground v.1.15,2013-08-28 21:48:00,
2013-08-28 15:54:00,86.5,67.9,29.98,SSE,148,11.0,11.0,54,0.00,,,0.00,Wunderground v.1.15,2013-08-28 21:54:00,
2013-08-28 16:00:00,86.5,67.9,29.98,SSE,149,10.0,15.0,54,0.00,,,0.00,Wunderground v.1.15,2013-08-28 22:00:00,
2013-08-28 16:06:00,86.8,67.6,29.98,South,171,10.0,15.0,53,0.00,,,0.00,Wunderground v.1.15,2013-08-28 22:06:00,
2013-08-28 16:12:00,87.0,67.8,29.98,SSE,148,10.0,15.0,53,0.00,,,0.00,Wunderground v.1.15,2013-08-28 22:12:00,
2013-08-28 16:18:00,87.3,66.4,29.97,SSE,148,10.0,15.0,50,0.00,,,0.00,Wunderground v.1.15,2013-08-28 22:18:00,
2013-08-28 16:24:00,87.5,64.8,29.97,SSW,196,11.0,15.0,47,0.00,,,0.00,Wunderground v.1.15,2013-08-28 22:24:00,
2013-08-28 16:30:00,87.5,65.4,29.97,SSE,162,12.0,12.0,48,0.00,,,0.00,Wunderground v.1.15,2013-08-28 22:30:00,
2013-08-28 16:36:00,87.7,66.2,29.97,SSE,148,11.0,12.0,49,0.00,,,0.00,Wunderground v.1.15,2013-08-28 22:36:00,
2013-08-28 16:42:00,87.7,65.0,29.97,SSE,165,11.0,15.0,47,0.00,,,0.00,Wunderground v.1.15,2013-08-28 22:42:00,
2013-08-28 16:48:00,87.8,65.7,29.96,South,184,11.0,15.0,48,0.00,,,0.00,Wunderground v.1.15,2013-08-28 22:48:00,
2013-08-28 16:54:00,88.2,64.2,29.96,South,177,12.0,18.0,45,0.00,,,0.00,Wunderground v.1.15,2013-08-28 22:54:00,
2013-08-28 17:00:00,88.8,63.4,29.96,SSE,161,11.0,15.0,43,0.00,,,0.00,Wunderground v.1.15,2013-08-28 23:00:00,
2013-08-28 17:06:00,89.0,63.6,29.96,SSE,163,11.0,15.0,43,0.00,,,0.00,Wunderground v.1.15,2013-08-28 23:06:00,
2013-08-28 17:12:00,89.2,62.4,29.96,South,170,11.0,11.0,41,0.00,,,0.00,Wunderground v.1.15,2013-08-28 23:12:00,
2013-08-28 17:18:00,89.0,62.9,29.96,SSE,167,11.0,14.0,42,0.00,,,0.00,Wunderground v.1.15,2013-08-28 23:18:00,
2013-08-28 17:24:00,88.9,63.5,29.96,South,179,12.0,15.0,43,0.00,,,0.00,Wunderground v.1.15,2013-08-28 23:24:00,
2013-08-28 17:30:00,88.8,63.4,29.96,SSE,156,12.0,12.0,43,0.00,,,0.00,Wunderground v.1.15,2013-08-28 23:30:00,
2013-08-28 17:36:00,88.8,64.7,29.97,SE,134,11.0,12.0,45,0.00,,,0.00,Wunderground v.1.15,2013-08-28 23:36:00,
2013-08-28 17:42:00,88.8,64.1,29.96,South,173,11.0,11.0,44,0.00,,,0.00,Wunderground v.1.15,2013-08-28 23:42:00,
2013-08-28 17:48:00,88.8,64.1,29.96,South,174,11.0,12.0,44,0.00,,,0.00,Wunderground v.1.15,2013-08-28 23:48:00,
2013-08-28 17:54:00,88.6,65.2,29.96,South,172,11.0,12.0,46,0.00,,,0.00,Wunderground v.1.15,2013-08-28 23:54:00,
2013-08-28 18:00:00,88.4,65.6,29.96,SSE,160,10.0,12.0,47,0.00,,,0.00,Wunderground v.1.15,2013-08-29 00:00:00,
2013-08-28 18:06:00,88.1,65.3,29.96,SSE,156,11.0,12.0,47,0.00,,,0.00,Wunderground v.1.15,2013-08-29 00:06:00,
2013-08-28 18:12:00,88.0,65.8,29.96,SSE,149,10.0,10.0,48,0.00,,,0.00,Wunderground v.1.15,2013-08-29 00:12:00,
2013-08-28 18:18:00,87.9,66.9,29.96,South,169,10.0,13.0,50,0.00,,,0.00,Wunderground v.1.15,2013-08-29 00:18:00,
2013-08-28 18:24:00,87.6,67.2,29.96,SSE,159,10.0,12.0,51,0.00,,,0.00,Wunderground v.1.15,2013-08-29 00:24:00,
2013-08-28 18:30:00,87.5,67.7,29.96,SSE,165,9.0,10.0,52,0.00,,,0.00,Wunderground v.1.15,2013-08-29 00:30:00,
2013-08-28 18:36:00,87.4,68.2,29.96,South,172,9.0,10.0,53,0.00,,,0.00,Wunderground v.1.15,2013-08-29 00:36:00,
2013-08-28 18:42:00,87.1,67.9,29.96,SSW,192,9.0,9.0,53,0.00,,,0.00,Wunderground v.1.15,2013-08-29 00:42:00,
2013-08-28 18:48:00,87.0,68.3,29.96,SSE,166,8.0,9.0,54,0.00,,,0.00,Wunderground v.1.15,2013-08-29 00:48:00,
2013-08-28 18:54:00,86.8,67.6,29.96,SSE,162,8.0,11.0,53,0.00,,,0.00,Wunderground v.1.15,2013-08-29 00:54:00,
2013-08-28 19:00:00,86.5,67.9,29.96,SSE,158,7.0,7.0,54,0.00,,,0.00,Wunderground v.1.15,2013-08-29 01:00:00,
2013-08-28 19:06:00,85.9,68.9,29.96,SE,140,7.0,7.0,57,0.00,,,0.00,Wunderground v.1.15,2013-08-29 01:06:00,
2013-08-28 19:12:00,85.2,68.8,29.96,SSE,162,5.0,6.0,58,0.00,,,0.00,Wunderground v.1.15,2013-08-29 01:12:00,
2013-08-28 19:18:00,84.5,68.6,29.96,SSE,166,5.0,6.0,59,0.00,,,0.00,Wunderground v.1.15,2013-08-29 01:18:00,
2013-08-28 19:24:00,84.2,68.8,29.96,SSE,165,5.0,9.0,60,0.00,,,0.00,Wunderground v.1.15,2013-08-29 01:24:00,
2013-08-28 19:30:00,84.1,68.7,29.96,SSE,153,6.0,6.0,60,0.00,,,0.00,Wunderground v.1.15,2013-08-29 01:30:00,
2013-08-28 19:36:00,84.0,68.6,29.96,SSE,155,6.0,7.0,60,0.00,,,0.00,Wunderground v.1.15,2013-08-29 01:36:00,
2013-08-28 19:42:00,83.9,68.5,29.96,SSE,155,6.0,6.0,60,0.00,,,0.00,Wunderground v.1.15,2013-08-29 01:42:00,
2013-08-28 19:48:00,83.1,69.2,29.97,SSE,164,6.0,6.0,63,0.00,,,0.00,Wunderground v.1.15,2013-08-29 01:48:00,
2013-08-28 19:54:00,82.5,69.1,29.97,SSE,166,6.0,9.0,64,0.00,,,0.00,Wunderground v.1.15,2013-08-29 01:54:00,
2013-08-28 20:00:00,82.2,69.3,29.97,SSE,168,7.0,8.0,65,0.00,,,0.00,Wunderground v.1.15,2013-08-29 02:00:00,
2013-08-28 20:06:00,82.0,69.1,29.97,SSE,160,7.0,11.0,65,0.00,,,0.00,Wunderground v.1.15,2013-08-29 02:06:00,
2013-08-28 20:12:00,81.7,68.3,29.97,South,170,6.0,6.0,64,0.00,,,0.00,Wunderground v.1.15,2013-08-29 02:12:00,
2013-08-28 20:18:00,81.6,67.8,29.97,South,172,6.0,8.0,63,0.00,,,0.00,Wunderground v.1.15,2013-08-29 02:18:00,
2013-08-28 20:24:00,81.4,66.7,29.97,SSE,162,6.0,7.0,61,0.00,,,0.00,Wunderground v.1.15,2013-08-29 02:24:00,
2013-08-28 20:30:00,81.1,66.4,29.97,SSE,168,5.0,7.0,61,0.00,,,0.00,Wunderground v.1.15,2013-08-29 02:30:00,
2013-08-28 20:36:00,80.9,65.7,29.98,South,171,5.0,7.0,60,0.00,,,0.00,Wunderground v.1.15,2013-08-29 02:36:00,
2013-08-28 20:42:00,80.6,65.4,29.98,South,169,5.0,6.0,60,0.00,,,0.00,Wunderground v.1.15,2013-08-29 02:42:00,
2013-08-28 20:48:00,80.2,65.5,29.98,SSE,168,5.0,6.0,61,0.00,,,0.00,Wunderground v.1.15,2013-08-29 02:48:00,
2013-08-28 20:54:00,79.7,65.5,29.98,South,178,6.0,6.0,62,0.00,,,0.00,Wunderground v.1.15,2013-08-29 02:54:00,
2013-08-28 21:00:00,79.1,65.4,29.98,South,174,6.0,7.0,63,0.00,,,0.00,Wunderground v.1.15,2013-08-29 03:00:00,
2013-08-28 21:06:00,79.3,65.6,29.98,SSW,205,7.0,8.0,63,0.00,,,0.00,Wunderground v.1.15,2013-08-29 03:06:00,
2013-08-28 21:12:00,79.7,66.0,29.98,South,187,7.0,10.0,63,0.00,,,0.00,Wunderground v.1.15,2013-08-29 03:12:00,
2013-08-28 21:18:00,80.2,66.0,29.98,SSW,197,8.0,10.0,62,0.00,,,0.00,Wunderground v.1.15,2013-08-29 03:18:00,
2013-08-28 21:24:00,80.7,66.5,29.98,South,183,9.0,13.0,62,0.00,,,0.00,Wunderground v.1.15,2013-08-29 03:24:00,
2013-08-28 21:30:00,80.8,66.6,29.98,South,185,9.0,9.0,62,0.00,,,0.00,Wunderground v.1.15,2013-08-29 03:30:00,
2013-08-28 21:36:00,80.9,66.7,29.99,South,185,9.0,11.0,62,0.00,,,0.00,Wunderground v.1.15,2013-08-29 03:36:00,
2013-08-28 21:42:00,80.9,66.7,30.00,South,175,10.0,15.0,62,0.00,,,0.00,Wunderground v.1.15,2013-08-29 03:42:00,
2013-08-28 21:48:00,81.1,66.4,30.01,SSW,192,14.0,20.0,61,0.00,,,0.00,Wunderground v.1.15,2013-08-29 03:48:00,
2013-08-28 21:54:00,80.9,59.9,30.01,SSE,153,19.0,22.0,49,0.00,,,0.00,Wunderground v.1.15,2013-08-29 03:54:00,
2013-08-28 22:00:00,79.6,58.8,30.02,South,187,19.0,19.0,49,0.00,,,0.00,Wunderground v.1.15,2013-08-29 04:00:00,
2013-08-28 22:02:00,79.0,58.8,30.02,South,174,17.0,19.0,50,0.00,,,0.00,Wunderground v.1.15,2013-08-29 04:02:00,
2013-08-28 22:04:00,78.4,58.8,30.01,SSW,206,15.0,19.0,51,0.00,,,0.00,Wunderground v.1.15,2013-08-29 04:04:00,
2013-08-28 22:06:00,77.8,58.8,30.01,SW,216,13.0,19.0,52,0.00,,,0.00,Wunderground v.1.15,2013-08-29 04:06:00,
2013-08-28 22:08:00,77.2,58.7,30.02,SSW,199,12.0,19.0,53,0.00,,,0.00,Wunderground v.1.15,2013-08-29 04:08:00,
2013-08-28 22:12:00,76.2,59.4,30.01,SSW,203,12.0,12.0,56,0.00,,,0.00,Wunderground v.1.15,2013-08-29 04:12:00,
2013-08-28 22:18:00,75.1,59.3,30.01,SSW,212,11.0,13.0,58,0.00,,,0.00,Wunderground v.1.15,2013-08-29 04:18:00,
2013-08-28 22:24:00,74.6,59.3,30.01,SSW,205,9.0,13.0,59,0.00,,,0.00,Wunderground v.1.15,2013-08-29 04:24:00,
2013-08-28 22:30:00,74.1,59.8,30.00,South,191,8.0,8.0,61,0.00,,,0.00,Wunderground v.1.15,2013-08-29 04:30:00,
2013-08-28 22:36:00,73.8,59.5,30.00,SSW,194,8.0,8.0,61,0.00,,,0.00,Wunderground v.1.15,2013-08-29 04:36:00,
2013-08-28 22:42:00,73.8,59.5,30.00,South,188,9.0,9.0,61,0.00,,,0.00,Wunderground v.1.15,2013-08-29 04:42:00,
2013-08-28 22:48:00,73.6,59.3,29.99,SSE,154,10.0,10.0,61,0.00,,,0.00,Wunderground v.1.15,2013-08-29 04:48:00,
2013-08-28 22:54:00,73.2,59.4,29.99,South,175,9.0,10.0,62,0.00,,,0.00,Wunderground v.1.15,2013-08-29 04:54:00,
2013-08-28 23:00:00,73.5,58.8,29.99,South,176,9.0,9.0,60,0.00,,,0.00,Wunderground v.1.15,2013-08-29 05:00:00,
2013-08-28 23:06:00,73.9,58.2,29.98,SSE,158,8.0,9.0,58,0.00,,,0.00,Wunderground v.1.15,2013-08-29 05:06:00,
2013-08-28 23:12:00,74.8,57.5,29.98,South,185,8.0,9.0,55,0.00,,,0.00,Wunderground v.1.15,2013-08-29 05:12:00,
2013-08-28 23:18:00,75.6,57.3,29.98,South,189,9.0,13.0,53,0.00,,,0.00,Wunderground v.1.15,2013-08-29 05:18:00,
2013-08-28 23:24:00,75.9,57.5,29.97,SSW,199,9.0,9.0,53,0.00,,,0.00,Wunderground v.1.15,2013-08-29 05:24:00,
2013-08-28 23:30:00,76.7,56.7,29.97,SSW,208,8.0,8.0,50,0.00,,,0.00,Wunderground v.1.15,2013-08-29 05:30:00,
2013-08-28 23:36:00,78.2,56.3,29.97,SSW,202,6.0,8.0,47,0.00,,,0.00,Wunderground v.1.15,2013-08-29 05:36:00,
2013-08-28 23:42:00,78.8,55.7,29.96,South,190,5.0,5.0,45,0.00,,,0.00,Wunderground v.1.15,2013-08-29 05:42:00,
2013-08-28 23:48:00,79.0,54.6,29.96,SSW,193,5.0,5.0,43,0.00,,,0.00,Wunderground v.1.15,2013-08-29 05:48:00,
2013-08-28 23:54:00,79.4,55.0,29.96,South,191,5.0,5.0,43,0.00,,,0.00,Wunderground v.1.15,2013-08-29 05:54:00,